Content
SEND FEEDBACK

Daily
Averages
Monthly
Summary
United States of America

RAPID CITY, SOUTH DAKOTA


Home > North America > United States > South Dakota
Elevation: 963 meters     Latitude: 44 03N     Longitude: 103 04W

WEATHER
 
SELECT A DAY
Number of Records: 200,148;   Date Range: 1/1/95 - 7/7/14
 
SHARE

PRINT THIS DATA

[ ← Previous Day ]
WEATHER ALMANAC - 8 SEPTEMBER, 2013
[ Next Day → ]
[ °F ]   °C
Weather ElementAverageHighLow
Temperature21.2 °C28.9 °C (3:52 pm)17 °C (9:05 am)
Dewpoint16.9 °C18 °C (4:16 am)15.6 °C (6:52 am)
Humidity77.5 %94 % (9:05 am)49 % (3:52 pm)
Barometer1012.5 hPa1016.6 hPa (4:59 am)1007.5 hPa (11:52 pm)
Wind Speed14.6 km/h33.3 km/h (8:52 pm)
Wind Gust83.4 km/h (8:52 pm)
Weather ElementAverage
Visibility14.6 km
Wind DirectionSSE (143.3 °)

Weather ElementTotal
Precipitation24.64 mm
Cooling Degree Days4.6 (Base 18.3)
Growing Degree Days12.9 (Base 10)
Averaged from 42 records on 8 September, 2013
WEATHER CONDITIONS BREAKOUT
WIND DIRECTION BREAKOUT
WEATHER BY HOUR - 8 SEPTEMBER, 2013
[ °F ]   °C
Local TimeTemperatureDewpointHumidityBarometerVisibilityWind DirectionWind SpeedGust SpeedPrecipitationEventsConditions
1:52 AM22.8 °C16.7 °C68 %1011.5 hPa16.1 kmEast (90°)20.4 km/hClear
2:52 AM21.7 °C16.1 °C70 %1011.5 hPa16.1 kmEast (90°)25.9 km/hClear
3:01 AM22 °C16 °C69 %1015.6 hPa16.1 kmEast (90°)18.5 km/h33.3 km/hThunderstormPartly Cloudy
3:26 AM22 °C17 °C73 %1015.6 hPa16.1 kmEast (90°)20.4 km/hScattered Clouds
3:52 AM21.7 °C17.2 °C75 %1012.5 hPa16.1 kmEast (80°)14.8 km/hMostly Cloudy
4:16 AM22 °C18 °C78 %1016.3 hPa16.1 kmENE (60°)20.4 km/hOvercast
4:34 AM21 °C18 °C83 %1016.3 hPa16.1 kmENE (60°)20.4 km/hOvercast
4:52 AM20 °C17.8 °C87 %1012.9 hPa16.1 kmNE (50°)25.9 km/h37 km/hOvercast
4:59 AM20 °C18 °C88 %1016.6 hPa16.1 kmNE (50°)20.4 km/hOvercast
5:07 AM20 °C18 °C88 %1016.6 hPa16.1 kmNE (50°)18.5 km/h29.6 km/hOvercast
5:52 AM18.9 °C16.1 °C84 %1012.9 hPa16.1 kmENE (70°)24.1 km/hOvercast
6:52 AM18.3 °C15.6 °C84 %1013.5 hPa16.1 kmEast (80°)18.5 km/hOvercast
7:52 AM18.9 °C16.1 °C84 %1014.2 hPa16.1 kmNNE (30°)14.8 km/hOvercast
8:23 AM19 °C16 °C83 %1016.6 hPa16.1 kmNNE (20°)14.8 km/hOvercast
8:52 AM17.8 °C16.1 °C90 %1014.2 hPa16.1 kmNorth (350°)14.8 km/hOvercast
9:05 AM17 °C16 °C94 %1016.6 hPa11.3 kmNW (320°)13 km/h0 mmRainLight Rain
9:52 AM17.8 °C16.7 °C93 %1014.2 hPa14.5 kmNW (310°)7.4 km/h0.25 mmOvercast
10:52 AM18.9 °C17.2 °C90 %1013.5 hPa16.1 kmNW (310°)7.4 km/h0 mmOvercast
11:50 AM21 °C17 °C78 %1014.9 hPa16.1 kmCalmOvercast
11:52 AM21.1 °C17.2 °C78 %1012.5 hPa16.1 kmCalmOvercast
12:27 PM23 °C17 °C69 %1014.6 hPa16.1 kmVariable7.4 km/hMostly Cloudy
12:35 PM23 °C17 °C69 %1014.2 hPa16.1 kmVariable9.3 km/hPartly Cloudy
12:52 PM24.4 °C17.8 °C67 %1011.5 hPa16.1 kmVariable7.4 km/hPartly Cloudy
1:52 PM25.6 °C17.2 °C60 %1010.5 hPa16.1 kmVariable9.3 km/hPartly Cloudy
2:52 PM27.2 °C17.2 °C54 %1009.5 hPa16.1 kmCalmClear
3:52 PM28.9 °C17.2 °C49 %1008.5 hPa16.1 kmENE (70°)13 km/hScattered Clouds
4:43 PM27 °C17 °C54 %1011.5 hPa16.1 kmEast (80°)14.8 km/hThunderstormScattered Clouds
4:52 PM27.2 °C17.2 °C54 %1008.5 hPa16.1 kmENE (70°)14.8 km/hThunderstormScattered Clouds
5:47 PM24 °C17 °C65 %1010.8 hPa16.1 kmNNE (20°)11.1 km/hMostly Cloudy
5:52 PM24.4 °C17.2 °C64 %1008.5 hPa16.1 kmNorth (360°)9.3 km/hScattered Clouds
6:52 PM22.2 °C17.8 °C76 %1008.5 hPa16.1 kmNNW (330°)13 km/hClear
7:52 PM21.1 °C17.8 °C81 %1008.1 hPa16.1 kmNorth (350°)13 km/hClear
8:38 PM22 °C18 °C78 %1012.2 hPa16.1 kmWest (270°)14.8 km/h0 mmRain-ThunderstormLight Rain
8:52 PM18.9 °C16.1 °C84 %1011.2 hPa4 kmWest (260°)33.3 km/h83.4 km/h1.52 mmRain-ThunderstormHeavy Thunderstorms and Rain
8:55 PM18 °C16 °C88 %1012.2 hPa2.9 kmWest (270°)29.6 km/h76 km/h1.52 mmRain-ThunderstormHeavy Thunderstorms and Rain
9:03 PM18 °C16 °C88 %1011.9 hPa3.2 kmWNW (300°)18.5 km/h38.9 km/h4.83 mmRain-ThunderstormHeavy Thunderstorms and Rain
9:12 PM18 °C16 °C88 %1012.2 hPa9.7 kmESE (120°)14.8 km/h29.6 km/h5.59 mmRain-ThunderstormLight Thunderstorms and Rain
9:52 PM19.4 °C16.1 °C81 %1010.2 hPa16.1 kmWNW (300°)20.4 km/h37 km/h6.6 mmRain-ThunderstormLight Thunderstorms and Rain
10:03 PM19 °C16 °C83 %1011.9 hPa11.3 kmNW (310°)14.8 km/h0.51 mmRain-ThunderstormThunderstorms and Rain
10:24 PM19 °C17 °C88 %1011.2 hPa11.3 kmNorth (350°)7.4 km/h1.52 mmRainLight Rain
10:52 PM18.3 °C16.1 °C87 %1008.5 hPa16.1 kmNorth (360°)14.8 km/h2.03 mmRainLight Rain
11:52 PM18.3 °C17.2 °C93 %1007.5 hPa16.1 kmCalm0.25 mmRainLight Rain
Hourly data recorded from KRAP, located 0 kilometers away from Rapid City, South Dakota







STORIES FROM OUR PARTNERS